| time (UTC) | temp C | wind direction | speed KPH | gust KPH | rain 1hr cm | rain 24hr cm | rain mn cm | humidity % | barometer mb |
| 20260509011538 | 13 | 0.0 | 0.0 | 0.00 | 0.00 | 0.00 | 32 | 1004.1 | |
| 20260509010522 | 13 | 268 | 3.2 | 4.8 | 0.00 | 0.00 | 0.00 | 31 | 1003.9 |
| 20260509005526 | 14 | 269 | 4.8 | 6.4 | 0.00 | 0.00 | 0.00 | 30 | 1003.9 |
| 20260509004530 | 14 | 268 | 4.8 | 6.4 | 0.00 | 0.00 | 0.00 | 31 | 1003.9 |
| 20260509003516 | 15 | 284 | 4.8 | 6.4 | 0.00 | 0.00 | 0.00 | 31 | 1003.8 |
| 20260509002520 | 15 | 269 | 3.2 | 4.8 | 0.00 | 0.00 | 0.00 | 31 | 1003.8 |
| 20260509001524 | 15 | 272 | 4.8 | 6.4 | 0.00 | 0.00 | 0.00 | 31 | 1003.7 |
| 20260509000528 | 16 | 270 | 4.8 | 4.8 | 0.00 | 0.00 | 0.00 | 31 | 1003.7 |
| 20260508235525 | 16 | 280 | 6.4 | 8.0 | 0.00 | 0.00 | 0.00 | 29 | 1003.6 |
| 20260508234524 | 16 | 276 | 6.4 | 8.0 | 0.00 | 0.00 | 0.00 | 28 | 1003.4 |
| 20260508233516 | 16 | 275 | 4.8 | 6.4 | 0.00 | 0.00 | 0.00 | 30 | 1003.3 |
| 20260508232520 | 17 | 238 | 4.8 | 8.0 | 0.00 | 0.00 | 0.00 | 29 | 1003.4 |
| 20260508231518 | 17 | 268 | 6.4 | 8.0 | 0.00 | 0.00 | 0.00 | 30 | 1003.3 |
| 20260508230516 | 17 | 274 | 3.2 | 6.4 | 0.00 | 0.00 | 0.00 | 30 | 1003.4 |
| 20260508225532 | 17 | 272 | 4.8 | 8.0 | 0.00 | 0.00 | 0.00 | 28 | 1003.3 |
| 20260508224530 | 17 | 253 | 6.4 | 9.7 | 0.00 | 0.00 | 0.00 | 28 | 1003.3 |
| 20260508223556 | 18 | 261 | 6.4 | 8.0 | 0.00 | 0.00 | 0.00 | 30 | 1003.4 |
| 20260508222519 | 18 | 266 | 4.8 | 8.0 | 0.00 | 0.00 | 0.00 | 32 | 1003.4 |
| 20260508221523 | 17 | 266 | 6.4 | 8.0 | 0.00 | 0.00 | 0.00 | 31 | 1003.4 |
| 20260508220527 | 18 | 274 | 6.4 | 8.0 | 0.00 | 0.00 | 0.00 | 32 | 1003.4 |
| 20260508215531 | 19 | 203 | 4.8 | 9.7 | 0.00 | 0.00 | 0.00 | 38 | 1003.5 |
| 20260508214537 | 19 | 230 | 8.0 | 12.9 | 0.00 | 0.00 | 0.00 | 36 | 1003.5 |
| 20260508213522 | 21 | 302 | 3.2 | 8.0 | 0.00 | 0.00 | 0.00 | 32 | 1003.5 |
| 20260508212525 | 20 | 225 | 6.4 | 9.7 | 0.00 | 0.00 | 0.00 | 32 | 1003.7 |
| 20260508211529 | 21 | 281 | 4.8 | 6.4 | 0.00 | 0.00 | 0.00 | 30 | 1003.7 |
| 20260508210533 | 21 | 247 | 4.8 | 8.0 | 0.00 | 0.00 | 0.00 | 30 | 1003.9 |
| 20260508205519 | 22 | 203 | 6.4 | 11.3 | 0.00 | 0.00 | 0.00 | 31 | 1003.9 |
| 20260508204522 | 22 | 212 | 4.8 | 8.0 | 0.00 | 0.00 | 0.00 | 32 | 1004.0 |
| 20260508203528 | 20 | 273 | 6.4 | 9.7 | 0.00 | 0.00 | 0.00 | 31 | 1004.1 |
| 20260508202529 | 20 | 256 | 6.4 | 9.7 | 0.00 | 0.00 | 0.00 | 29 | 1004.0 |
| 20260508201533 | 21 | 243 | 6.4 | 11.3 | 0.00 | 0.00 | 0.00 | 32 | 1004.5 |
| 20260508200517 | 20 | 252 | 6.4 | 11.3 | 0.00 | 0.00 | 0.00 | 32 | 1004.6 |
| 20260508195521 | 20 | 224 | 6.4 | 11.3 | 0.00 | 0.00 | 0.00 | 30 | 1004.8 |
| 20260508194526 | 20 | 264 | 6.4 | 8.0 | 0.00 | 0.00 | 0.00 | 32 | 1004.9 |
| 20260508193530 | 20 | 275 | 4.8 | 9.7 | 0.00 | 0.00 | 0.00 | 32 | 1005.0 |
| 20260508192515 | 21 | 285 | 3.2 | 4.8 | 0.00 | 0.00 | 0.00 | 33 | 1005.4 |
| 20260508191520 | 19 | 262 | 8.0 | 17.7 | 0.00 | 0.00 | 0.00 | 34 | 1005.5 |
| 20260508190541 | 18 | 271 | 6.4 | 9.7 | 0.00 | 0.00 | 0.00 | 35 | 1005.7 |
| 20260508185519 | 20 | 248 | 6.4 | 9.7 | 0.00 | 0.00 | 0.00 | 34 | 1005.8 |
| 20260508184517 | 19 | 270 | 6.4 | 11.3 | 0.00 | 0.00 | 0.00 | 33 | 1005.9 |
| 20260508183533 | 19 | 230 | 6.4 | 11.3 | 0.00 | 0.00 | 0.00 | 34 | 1006.0 |
| 20260508182519 | 18 | 263 | 4.8 | 6.4 | 0.00 | 0.00 | 0.00 | 34 | 1006.1 |
| 20260508181523 | 18 | 274 | 6.4 | 11.3 | 0.00 | 0.00 | 0.00 | 35 | 1006.3 |
| 20260508180527 | 20 | 250 | 3.2 | 8.0 | 0.00 | 0.00 | 0.00 | 32 | 1006.5 |
| 20260508175530 | 18 | 217 | 4.8 | 11.3 | 0.00 | 0.00 | 0.00 | 34 | 1006.6 |
| 20260508174518 | 18 | 255 | 6.4 | 8.0 | 0.00 | 0.00 | 0.00 | 35 | 1006.7 |
| 20260508173521 | 18 | 248 | 6.4 | 11.3 | 0.00 | 0.00 | 0.00 | 33 | 1006.8 |
| 20260508172526 | 17 | 248 | 4.8 | 8.0 | 0.00 | 0.00 | 0.00 | 34 | 1007.1 |
| 20260508171529 | 18 | 272 | 8.0 | 9.7 | 0.00 | 0.00 | 0.00 | 33 | 1007.3 |
| 20260508170533 | 17 | 256 | 4.8 | 11.3 | 0.00 | 0.00 | 0.00 | 33 | 1007.5 |
| 20260508165539 | 17 | 244 | 4.8 | 11.3 | 0.00 | 0.00 | 0.00 | 36 | 1007.6 |
| 20260508164523 | 16 | 272 | 4.8 | 9.7 | 0.00 | 0.00 | 0.00 | 38 | 1007.7 |
| 20260508163527 | 16 | 274 | 6.4 | 9.7 | 0.00 | 0.00 | 0.00 | 37 | 1008.0 |
| 20260508162530 | 16 | 280 | 6.4 | 8.0 | 0.00 | 0.00 | 0.00 | 37 | 1008.0 |
| 20260508161516 | 17 | 272 | 4.8 | 8.0 | 0.00 | 0.00 | 0.00 | 39 | 1008.1 |
| 20260508160520 | 15 | 277 | 6.4 | 8.0 | 0.00 | 0.00 | 0.00 | 37 | 1008.1 |
| 20260508155526 | 16 | 248 | 6.4 | 8.0 | 0.00 | 0.00 | 0.00 | 39 | 1008.4 |
| 20260508154528 | 16 | 255 | 4.8 | 9.7 | 0.00 | 0.00 | 0.00 | 40 | 1008.4 |
| 20260508153532 | 18 | 159 | 4.8 | 9.7 | 0.00 | 0.00 | 0.00 | 41 | 1008.3 |
| 20260508152518 | 16 | 190 | 6.4 | 11.3 | 0.00 | 0.00 | 0.00 | 43 | 1008.4 |
| 20260508151542 | 16 | 196 | 3.2 | 8.0 | 0.00 | 0.00 | 0.00 | 43 | 1008.6 |
| 20260508150526 | 16 | 236 | 4.8 | 8.0 | 0.00 | 0.00 | 0.00 | 43 | 1008.7 |
| 20260508145530 | 17 | 193 | 4.8 | 8.0 | 0.00 | 0.00 | 0.00 | 42 | 1008.8 |
| 20260508144536 | 17 | 188 | 4.8 | 11.3 | 0.00 | 0.00 | 0.00 | 42 | 1008.8 |
| 20260508143520 | 17 | 142 | 3.2 | 6.4 | 0.00 | 0.00 | 0.00 | 43 | 1008.9 |
| 20260508142524 | 15 | 188 | 4.8 | 8.0 | 0.00 | 0.00 | 0.00 | 47 | 1009.1 |
| 20260508141522 | 14 | 208 | 3.2 | 8.0 | 0.00 | 0.00 | 0.00 | 52 | 1009.0 |
| 20260508140519 | 15 | 195 | 3.2 | 8.0 | 0.00 | 0.00 | 0.00 | 50 | 1009.3 |
| 20260508135518 | 14 | 210 | 4.8 | 8.0 | 0.00 | 0.00 | 0.00 | 53 | 1009.3 |
| 20260508134515 | 15 | 150 | 1.6 | 4.8 | 0.00 | 0.00 | 0.00 | 52 | 1009.3 |
| 20260508133526 | 15 | 147 | 4.8 | 6.4 | 0.00 | 0.00 | 0.00 | 55 | 1009.3 |
| 20260508132529 | 14 | 122 | 4.8 | 8.0 | 0.00 | 0.00 | 0.00 | 56 | 1009.4 |
| 20260508131515 | 13 | 126 | 4.8 | 8.0 | 0.00 | 0.00 | 0.00 | 56 | 1009.4 |
| 20260508130519 | 13 | 121 | 6.4 | 8.0 | 0.00 | 0.00 | 0.00 | 60 | 1009.4 |
| 20260508125523 | 12 | 137 | 4.8 | 8.0 | 0.00 | 0.00 | 0.00 | 64 | 1009.3 |
| 20260508124527 | 12 | 153 | 4.8 | 6.4 | 0.00 | 0.00 | 0.00 | 65 | 1009.2 |
| 20260508123531 | 12 | 130 | 1.6 | 4.8 | 0.00 | 0.00 | 0.00 | 66 | 1009.2 |
| 20260508122517 | 11 | 150 | 1.6 | 3.2 | 0.00 | 0.00 | 0.00 | 70 | 1009.0 |
| 20260508121521 | 9 | 0.0 | 0.0 | 0.00 | 0.00 | 0.00 | 76 | 1009.0 | |
| 20260508120524 | 8 | 0.0 | 0.0 | 0.00 | 0.00 | 0.00 | 84 | 1009.0 | |
| 20260508115528 | 8 | 0.0 | 0.0 | 0.00 | 0.00 | 0.00 | 81 | 1008.9 | |
| 20260508114532 | 7 | 0.0 | 0.0 | 0.00 | 0.00 | 0.00 | 88 | 1008.8 | |
| 20260508113518 | 5 | 0.0 | 0.0 | 0.00 | 0.00 | 0.00 | 89 | 1008.8 | |
| 20260508112521 | 5 | 0.0 | 0.0 | 0.00 | 0.00 | 0.00 | 95 | 1008.5 | |
| 20260508111525 | 3 | 0.0 | 0.0 | 0.00 | 0.00 | 0.00 | 99 | 1008.4 | |
| 20260508110530 | 2 | 0.0 | 0.0 | 0.00 | 0.00 | 0.00 | 99 | 1008.3 | |
| 20260508105515 | 1 | 0.0 | 0.0 | 0.00 | 0.00 | 0.00 | 99 | 1008.3 | |
| 20260508104519 | 1 | 0.0 | 0.0 | 0.00 | 0.00 | 0.00 | 99 | 1008.2 | |
| 20260508103543 | 0 | 0.0 | 0.0 | 0.00 | 0.00 | 0.00 | 99 | 1008.1 | |
| 20260508102527 | 1 | 0.0 | 0.0 | 0.00 | 0.00 | 0.00 | 99 | 1008.3 | |
| 20260508101531 | 1 | 0.0 | 0.0 | 0.00 | 0.00 | 0.00 | 99 | 1008.2 | |
| 20260508100518 | 1 | 0.0 | 0.0 | 0.00 | 0.00 | 0.00 | 99 | 1008.2 | |
| 20260508095521 | 1 | 0.0 | 0.0 | 0.00 | 0.00 | 0.00 | 99 | 1008.3 | |
| 20260508094523 | 1 | 0.0 | 0.0 | 0.00 | 0.00 | 0.00 | 99 | 1008.2 | |
| 20260508093521 | 1 | 0.0 | 0.0 | 0.00 | 0.00 | 0.00 | 99 | 1008.2 | |
| 20260508092539 | 1 | 0.0 | 0.0 | 0.00 | 0.00 | 0.00 | 98 | 1008.3 | |
| 20260508091517 | 1 | 0.0 | 0.0 | 0.00 | 0.00 | 0.00 | 97 | 1008.3 | |
| 20260508090521 | 2 | 0.0 | 0.0 | 0.00 | 0.00 | 0.00 | 98 | 1008.3 | |
| 20260508085524 | 2 | 0.0 | 0.0 | 0.00 | 0.00 | 0.00 | 97 | 1008.2 | |
| 20260508084528 | 2 | 0.0 | 0.0 | 0.00 | 0.00 | 0.00 | 97 | 1008.3 | |
| 20260508083553 | 2 | 0.0 | 0.0 | 0.00 | 0.00 | 0.00 | 97 | 1008.3 | |
| 20260508082518 | 3 | 0.0 | 0.0 | 0.00 | 0.00 | 0.00 | 98 | 1008.3 | |
| 20260508081522 | 3 | 0.0 | 0.0 | 0.00 | 0.00 | 0.00 | 98 | 1008.4 | |
| 20260508080526 | 3 | 0.0 | 0.0 | 0.00 | 0.00 | 0.00 | 97 | 1008.6 | |
| 20260508075530 | 3 | 0.0 | 0.0 | 0.00 | 0.00 | 0.00 | 97 | 1008.6 | |
| 20260508074516 | 3 | 0.0 | 0.0 | 0.00 | 0.00 | 0.00 | 96 | 1008.5 | |
| 20260508073520 | 3 | 255 | 1.6 | 3.2 | 0.00 | 0.00 | 0.00 | 96 | 1008.5 |
| 20260508072524 | 4 | 206 | 3.2 | 4.8 | 0.00 | 0.00 | 0.00 | 95 | 1008.4 |
| 20260508071528 | 4 | 0.0 | 0.0 | 0.00 | 0.00 | 0.00 | 94 | 1008.6 | |
| 20260508070531 | 4 | 0.0 | 0.0 | 0.00 | 0.00 | 0.00 | 94 | 1008.7 | |
| 20260508065518 | 5 | 248 | 0.0 | 1.6 | 0.00 | 0.00 | 0.00 | 91 | 1008.7 |
| 20260508064521 | 5 | 0.0 | 0.0 | 0.00 | 0.00 | 0.00 | 91 | 1008.8 | |
| 20260508063525 | 5 | 0.0 | 0.0 | 0.00 | 0.00 | 0.00 | 90 | 1008.9 | |
| 20260508062529 | 5 | 0.0 | 0.0 | 0.00 | 0.00 | 0.00 | 87 | 1008.8 | |
| 20260508061533 | 6 | 0.0 | 0.0 | 0.00 | 0.00 | 0.00 | 86 | 1008.8 | |
| 20260508060519 | 6 | 0.0 | 0.0 | 0.00 | 0.00 | 0.00 | 87 | 1008.9 | |
| 20260508055523 | 6 | 0.0 | 0.0 | 0.00 | 0.00 | 0.00 | 93 | 1008.9 | |
| 20260508054527 | 6 | 0.0 | 0.0 | 0.00 | 0.00 | 0.00 | 92 | 1008.9 | |
| 20260508053531 | 6 | 0.0 | 0.0 | 0.00 | 0.00 | 0.00 | 93 | 1008.9 | |
| 20260508052516 | 6 | 0.0 | 0.0 | 0.00 | 0.00 | 0.00 | 93 | 1008.8 | |
| 20260508051520 | 6 | 0.0 | 0.0 | 0.00 | 0.00 | 0.00 | 89 | 1009.0 | |
| 20260508050524 | 6 | 0.0 | 0.0 | 0.00 | 0.00 | 0.00 | 87 | 1009.0 | |
| 20260508045522 | 6 | 0.0 | 0.0 | 0.00 | 0.00 | 0.00 | 88 | 1008.8 | |
| 20260508044540 | 6 | 0.0 | 0.0 | 0.00 | 0.00 | 0.00 | 85 | 1008.6 | |
| 20260508043518 | 6 | 0.0 | 0.0 | 0.00 | 0.00 | 0.00 | 84 | 1008.5 | |
| 20260508042516 | 7 | 0.0 | 0.0 | 0.00 | 0.00 | 0.00 | 84 | 1008.5 | |
| 20260508041526 | 7 | 0.0 | 0.0 | 0.00 | 0.00 | 0.00 | 84 | 1008.7 | |
| 20260508040550 | 7 | 270 | 0.0 | 3.2 | 0.00 | 0.00 | 0.00 | 83 | 1008.5 |
| 20260508035516 | 7 | 0.0 | 0.0 | 0.00 | 0.00 | 0.00 | 80 | 1008.5 | |
| 20260508034520 | 7 | 0.0 | 0.0 | 0.00 | 0.00 | 0.00 | 83 | 1008.5 | |
| 20260508033524 | 8 | 0.0 | 0.0 | 0.00 | 0.00 | 0.00 | 78 | 1008.6 | |
| 20260508032528 | 8 | 187 | 0.0 | 3.2 | 0.00 | 0.00 | 0.00 | 75 | 1008.6 |
| 20260508031532 | 8 | 0.0 | 0.0 | 0.00 | 0.00 | 0.00 | 77 | 1008.6 | |
| 20260508030518 | 8 | 0.0 | 0.0 | 0.00 | 0.00 | 0.00 | 79 | 1008.8 | |
| 20260508025542 | 8 | 0.0 | 0.0 | 0.00 | 0.00 | 0.00 | 75 | 1008.8 | |
| 20260508024526 | 8 | 0.0 | 0.0 | 0.00 | 0.00 | 0.00 | 72 | 1008.7 | |
| 20260508023531 | 8 | 0.0 | 0.0 | 0.00 | 0.00 | 0.00 | 74 | 1008.7 | |
| 20260508022537 | 8 | 0.0 | 0.0 | 0.00 | 0.00 | 0.00 | 76 | 1008.5 | |
| 20260508021521 | 8 | 203 | 0.0 | 1.6 | 0.00 | 0.00 | 0.00 | 74 | 1008.5 |
| 20260508020525 | 8 | 0.0 | 0.0 | 0.00 | 0.00 | 0.00 | 70 | 1008.4 | |
| 20260508015529 | 8 | 0.0 | 1.6 | 0.00 | 0.00 | 0.00 | 68 | 1008.4 | |
| 20260508014516 | 8 | 0.0 | 0.0 | 0.00 | 0.00 | 0.00 | 68 | 1008.4 | |
| 20260508013527 | 8 | 180 | 0.0 | 3.2 | 0.00 | 0.00 | 0.00 | 62 | 1008.3 |
| 20260508012524 | 9 | 180 | 0.0 | 3.2 | 0.00 | 0.00 | 0.00 | 59 | 1008.1 |